Time,TemperatureF,DewpointF,PressureIn,WindDirection,WindDirectionDegrees,WindSpeedMPH,WindSpeedGustMPH,Humidity,HourlyPrecipIn,Conditions,Clouds,dailyrainin,SolarRadiationWatts/m^2,SoftwareType,DateUTC
2013-02-06 00:00:00,43.8,17.9,29.73,South,175,4.0,4.0,35,0.00,,,0.00,0,Wunderground v.1.15,2013-02-06 07:00:00,
2013-02-06 00:10:00,43.5,17.6,29.73,South,181,5.0,10.0,35,0.00,,,0.00,0,Wunderground v.1.15,2013-02-06 07:10:00,
2013-02-06 00:15:00,43.2,18.0,29.73,South,171,5.0,10.0,36,0.00,,,0.00,0,Wunderground v.1.15,2013-02-06 07:15:00,
2013-02-06 00:20:00,43.2,18.0,29.72,SSE,162,5.0,10.0,36,0.00,,,0.00,0,Wunderground v.1.15,2013-02-06 07:20:00,
2013-02-06 00:25:00,43.3,18.1,29.72,SSE,166,5.0,10.0,36,0.00,,,0.00,0,Wunderground v.1.15,2013-02-06 07:25:00,
2013-02-06 00:30:00,43.4,18.8,29.72,SSE,156,4.0,10.0,37,0.00,,,0.00,0,Wunderground v.1.15,2013-02-06 07:30:00,
2013-02-06 00:40:00,43.7,18.5,29.72,South,171,4.0,4.0,36,0.00,,,0.00,0,Wunderground v.1.15,2013-02-06 07:40:00,
2013-02-06 00:45:00,43.6,18.4,29.72,South,171,3.0,10.0,36,0.00,,,0.00,0,Wunderground v.1.15,2013-02-06 07:45:00,
2013-02-06 00:50:00,43.2,18.0,29.72,South,171,2.0,2.0,36,0.00,,,0.00,0,Wunderground v.1.15,2013-02-06 07:50:00,
2013-02-06 00:55:00,42.7,18.2,29.72,South,171,1.0,10.0,37,0.00,,,0.00,0,Wunderground v.1.15,2013-02-06 07:55:00,
2013-02-06 01:00:00,42.1,18.3,29.72,South,172,0.0,10.0,38,0.00,,,0.00,0,Wunderground v.1.15,2013-02-06 08:00:00,
2013-02-06 01:05:00,41.4,18.9,29.72,South,179,1.0,10.0,40,0.00,,,0.00,0,Wunderground v.1.15,2013-02-06 08:05:00,
2013-02-06 01:15:00,41.2,18.7,29.72,SSW,199,2.0,10.0,40,0.00,,,0.00,0,Wunderground v.1.15,2013-02-06 08:15:00,
2013-02-06 01:20:00,41.8,18.6,29.72,SSE,168,3.0,3.0,39,0.00,,,0.00,0,Wunderground v.1.15,2013-02-06 08:20:00,
2013-02-06 01:25:00,41.8,19.2,29.71,SSE,168,2.0,10.0,40,0.00,,,0.00,0,Wunderground v.1.15,2013-02-06 08:25:00,
2013-02-06 01:30:00,41.2,18.7,29.71,SSE,168,1.0,1.0,40,0.00,,,0.00,0,Wunderground v.1.15,2013-02-06 08:30:00,
2013-02-06 01:35:00,40.5,19.7,29.72,South,169,0.0,10.0,43,0.00,,,0.00,0,Wunderground v.1.15,2013-02-06 08:35:00,
2013-02-06 01:45:00,39.1,19.5,29.72,South,169,0.0,10.0,45,0.00,,,0.00,0,Wunderground v.1.15,2013-02-06 08:45:00,
2013-02-06 01:50:00,38.8,19.2,29.72,South,169,0.0,10.0,45,0.00,,,0.00,0,Wunderground v.1.15,2013-02-06 08:50:00,
2013-02-06 01:55:00,38.6,19.6,29.72,South,169,0.0,10.0,46,0.00,,,0.00,0,Wunderground v.1.15,2013-02-06 08:55:00,
2013-02-06 02:00:00,38.8,19.2,29.72,South,169,0.0,10.0,45,0.00,,,0.00,0,Wunderground v.1.15,2013-02-06 09:00:00,
2013-02-06 02:05:00,38.9,19.3,29.72,South,169,0.0,10.0,45,0.00,,,0.00,0,Wunderground v.1.15,2013-02-06 09:05:00,
2013-02-06 02:10:00,39.1,19.5,29.72,South,169,0.0,10.0,45,0.00,,,0.00,0,Wunderground v.1.15,2013-02-06 09:10:00,
2013-02-06 02:20:00,39.1,19.5,29.71,South,169,0.0,10.0,45,0.00,,,0.00,0,Wunderground v.1.15,2013-02-06 09:20:00,
2013-02-06 02:25:00,38.9,19.9,29.71,South,169,0.0,10.0,46,0.00,,,0.00,0,Wunderground v.1.15,2013-02-06 09:25:00,
2013-02-06 02:30:00,38.5,20.0,29.72,South,169,0.0,10.0,47,0.00,,,0.00,0,Wunderground v.1.15,2013-02-06 09:30:00,
2013-02-06 02:35:00,37.9,20.4,29.72,South,180,0.0,10.0,49,0.00,,,0.00,0,Wunderground v.1.15,2013-02-06 09:35:00,
2013-02-06 02:40:00,37.6,20.6,29.71,South,180,0.0,10.0,50,0.00,,,0.00,0,Wunderground v.1.15,2013-02-06 09:40:00,
2013-02-06 02:50:00,37.1,20.6,29.71,South,180,0.0,10.0,51,0.00,,,0.00,0,Wunderground v.1.15,2013-02-06 09:50:00,
2013-02-06 02:55:00,37.0,21.0,29.70,South,180,0.0,10.0,52,0.00,,,0.00,0,Wunderground v.1.15,2013-02-06 09:55:00,
2013-02-06 03:05:00,36.8,20.8,29.70,South,186,0.0,10.0,52,0.00,,,0.00,0,Wunderground v.1.15,2013-02-06 10:05:00,
2013-02-06 03:10:00,36.7,21.2,29.70,South,186,0.0,10.0,53,0.00,,,0.00,0,Wunderground v.1.15,2013-02-06 10:10:00,
2013-02-06 03:15:00,36.6,21.1,29.70,SSW,196,0.0,10.0,53,0.00,,,0.00,0,Wunderground v.1.15,2013-02-06 10:15:00,
2013-02-06 03:25:00,36.0,20.9,29.70,SSW,207,0.0,10.0,54,0.00,,,0.00,0,Wunderground v.1.15,2013-02-06 10:25:00,
2013-02-06 03:30:00,35.9,20.9,29.70,SSW,207,0.0,10.0,54,0.00,,,0.00,0,Wunderground v.1.15,2013-02-06 10:30:00,
2013-02-06 03:35:00,35.8,21.2,29.70,SSW,207,0.0,10.0,55,0.00,,,0.00,0,Wunderground v.1.15,2013-02-06 10:35:00,
2013-02-06 03:40:00,35.7,21.1,29.70,SSW,207,0.0,10.0,55,0.00,,,0.00,0,Wunderground v.1.15,2013-02-06 10:40:00,
2013-02-06 03:45:00,35.5,21.3,29.70,SSW,207,0.0,10.0,56,0.00,,,0.00,0,Wunderground v.1.15,2013-02-06 10:45:00,
2013-02-06 03:50:00,35.7,21.1,29.70,SSW,207,0.0,10.0,55,0.00,,,0.00,0,Wunderground v.1.15,2013-02-06 10:50:00,
2013-02-06 04:00:00,35.6,21.0,29.70,SSW,207,0.0,10.0,55,0.00,,,0.00,0,Wunderground v.1.15,2013-02-06 11:00:00,
2013-02-06 04:05:00,35.4,21.2,29.70,SSW,207,0.0,10.0,56,0.00,,,0.00,0,Wunderground v.1.15,2013-02-06 11:05:00,
2013-02-06 04:10:00,35.4,21.2,29.70,SSW,207,1.0,1.0,56,0.00,,,0.00,0,Wunderground v.1.15,2013-02-06 11:10:00,
2013-02-06 04:15:00,35.5,21.3,29.70,SSW,207,0.0,10.0,56,0.00,,,0.00,0,Wunderground v.1.15,2013-02-06 11:15:00,
2013-02-06 04:20:00,35.4,21.2,29.70,SSW,207,0.0,10.0,56,0.00,,,0.00,0,Wunderground v.1.15,2013-02-06 11:20:00,
2013-02-06 04:30:00,35.0,20.9,29.70,SSW,207,1.0,1.0,56,0.00,,,0.00,0,Wunderground v.1.15,2013-02-06 11:30:00,
2013-02-06 04:35:00,35.0,21.3,29.70,SSW,207,1.0,10.0,57,0.00,,,0.00,0,Wunderground v.1.15,2013-02-06 11:35:00,
2013-02-06 04:45:00,35.1,21.0,29.71,SSW,207,0.0,10.0,56,0.00,,,0.00,0,Wunderground v.1.15,2013-02-06 11:45:00,
2013-02-06 04:50:00,35.0,21.3,29.71,SSW,207,0.0,10.0,57,0.00,,,0.00,0,Wunderground v.1.15,2013-02-06 11:50:00,
2013-02-06 04:55:00,34.9,21.2,29.70,SSW,207,0.0,10.0,57,0.00,,,0.00,0,Wunderground v.1.15,2013-02-06 11:55:00,
2013-02-06 05:05:00,35.1,21.4,29.71,SSW,211,1.0,10.0,57,0.00,,,0.00,0,Wunderground v.1.15,2013-02-06 12:05:00,
2013-02-06 05:10:00,35.4,21.2,29.71,SSW,211,1.0,10.0,56,0.00,,,0.00,0,Wunderground v.1.15,2013-02-06 12:10:00,
2013-02-06 05:15:00,35.1,21.0,29.71,SSW,211,1.0,10.0,56,0.00,,,0.00,0,Wunderground v.1.15,2013-02-06 12:15:00,
2013-02-06 05:20:00,35.0,21.3,29.71,SSW,211,0.0,10.0,57,0.00,,,0.00,0,Wunderground v.1.15,2013-02-06 12:20:00,
2013-02-06 05:25:00,35.0,21.3,29.71,SSW,211,0.0,10.0,57,0.00,,,0.00,0,Wunderground v.1.15,2013-02-06 12:25:00,
2013-02-06 05:30:00,34.9,21.2,29.71,SSW,211,0.0,10.0,57,0.00,,,0.00,0,Wunderground v.1.15,2013-02-06 12:30:00,
2013-02-06 05:40:00,34.1,20.9,29.71,SSW,210,1.0,10.0,58,0.00,,,0.00,0,Wunderground v.1.15,2013-02-06 12:40:00,
2013-02-06 05:45:00,34.0,20.8,29.71,SSW,210,2.0,10.0,58,0.00,,,0.00,0,Wunderground v.1.15,2013-02-06 12:45:00,
2013-02-06 05:50:00,34.1,20.9,29.71,SSW,209,2.0,10.0,58,0.00,,,0.00,0,Wunderground v.1.15,2013-02-06 12:50:00,
2013-02-06 05:55:00,34.2,20.5,29.71,SSW,209,1.0,10.0,57,0.00,,,0.00,0,Wunderground v.1.15,2013-02-06 12:55:00,
2013-02-06 06:00:00,34.1,20.9,29.71,SSW,209,1.0,10.0,58,0.00,,,0.00,0,Wunderground v.1.15,2013-02-06 13:00:00,
2013-02-06 06:10:00,34.2,20.9,29.71,SSW,208,1.0,10.0,58,0.00,,,0.00,0,Wunderground v.1.15,2013-02-06 13:10:00,
2013-02-06 06:15:00,34.1,20.9,29.71,SSW,196,2.0,10.0,58,0.00,,,0.00,0,Wunderground v.1.15,2013-02-06 13:15:00,
2013-02-06 06:20:00,33.9,21.1,29.71,South,178,3.0,10.0,59,0.00,,,0.00,0,Wunderground v.1.15,2013-02-06 13:20:00,
2013-02-06 06:25:00,34.0,21.2,29.71,South,179,4.0,10.0,59,0.00,,,0.00,0,Wunderground v.1.15,2013-02-06 13:25:00,
2013-02-06 06:30:00,34.1,21.7,29.71,South,178,4.0,4.0,60,0.00,,,0.00,0,Wunderground v.1.15,2013-02-06 13:30:00,
2013-02-06 06:35:00,34.3,21.4,29.72,South,178,3.0,10.0,59,0.00,,,0.00,0,Wunderground v.1.15,2013-02-06 13:35:00,
2013-02-06 06:45:00,34.2,21.7,29.72,South,180,2.0,10.0,60,0.00,,,0.00,0,Wunderground v.1.15,2013-02-06 13:45:00,
2013-02-06 06:50:00,34.1,21.7,29.72,South,180,1.0,1.0,60,0.00,,,0.00,0,Wunderground v.1.15,2013-02-06 13:50:00,
2013-02-06 06:55:00,33.9,21.5,29.72,South,180,1.0,10.0,60,0.00,,,0.00,0,Wunderground v.1.15,2013-02-06 13:55:00,
2013-02-06 07:00:00,34.1,21.7,29.72,South,180,2.0,10.0,60,0.00,,,0.00,0,Wunderground v.1.15,2013-02-06 14:00:00,
2013-02-06 07:05:00,34.2,21.7,29.73,South,180,3.0,10.0,60,0.00,,,0.00,5,Wunderground v.1.15,2013-02-06 14:05:00,
2013-02-06 07:15:00,34.5,21.6,29.73,South,180,3.0,10.0,59,0.00,,,0.00,9,Wunderground v.1.15,2013-02-06 14:15:00,
2013-02-06 07:20:00,34.6,21.7,29.73,South,180,2.0,2.0,59,0.00,,,0.00,11,Wunderground v.1.15,2013-02-06 14:20:00,
2013-02-06 07:25:00,34.6,21.7,29.73,South,180,1.0,10.0,59,0.00,,,0.00,28,Wunderground v.1.15,2013-02-06 14:25:00,
2013-02-06 07:35:00,35.2,21.9,29.74,South,180,2.0,10.0,58,0.00,,,0.00,51,Wunderground v.1.15,2013-02-06 14:35:00,
2013-02-06 07:40:00,35.4,22.1,29.74,South,180,2.0,10.0,58,0.00,,,0.00,62,Wunderground v.1.15,2013-02-06 14:40:00,
2013-02-06 07:45:00,36.2,22.0,29.74,South,180,3.0,10.0,56,0.00,,,0.00,77,Wunderground v.1.15,2013-02-06 14:45:00,
2013-02-06 07:55:00,37.5,21.9,29.73,South,179,3.0,10.0,53,0.00,,,0.00,104,Wunderground v.1.15,2013-02-06 14:55:00,
2013-02-06 08:00:00,37.8,22.2,29.74,South,175,4.0,4.0,53,0.00,,,0.00,116,Wunderground v.1.15,2013-02-06 15:00:00,
2013-02-06 08:05:00,38.2,22.1,29.74,South,184,4.0,5.0,52,0.00,,,0.00,130,Wunderground v.1.15,2013-02-06 15:05:00,
2013-02-06 08:10:00,38.5,21.9,29.74,South,184,4.0,10.0,51,0.00,,,0.00,141,Wunderground v.1.15,2013-02-06 15:10:00,
2013-02-06 08:15:00,38.8,22.2,29.74,South,182,4.0,10.0,51,0.00,,,0.00,155,Wunderground v.1.15,2013-02-06 15:15:00,
2013-02-06 08:25:00,39.4,22.3,29.74,SSE,158,5.0,10.0,50,0.00,,,0.00,185,Wunderground v.1.15,2013-02-06 15:25:00,
2013-02-06 08:30:00,39.9,22.3,29.74,South,189,5.0,5.0,49,0.00,,,0.00,199,Wunderground v.1.15,2013-02-06 15:30:00,
2013-02-06 08:35:00,40.1,22.0,29.74,SSE,166,6.0,6.0,48,0.00,,,0.00,214,Wunderground v.1.15,2013-02-06 15:35:00,
2013-02-06 08:40:00,40.8,22.1,29.74,South,182,5.0,5.0,47,0.00,,,0.00,230,Wunderground v.1.15,2013-02-06 15:40:00,
2013-02-06 08:45:00,41.4,22.1,29.74,South,185,4.0,10.0,46,0.00,,,0.00,253,Wunderground v.1.15,2013-02-06 15:45:00,
2013-02-06 08:55:00,42.2,22.4,29.74,South,174,5.0,7.0,45,0.00,,,0.00,295,Wunderground v.1.15,2013-02-06 15:55:00,
2013-02-06 09:00:00,43.1,22.1,29.74,South,173,5.0,5.0,43,0.00,,,0.00,316,Wunderground v.1.15,2013-02-06 16:00:00,
2013-02-06 09:05:00,43.5,22.5,29.74,SSW,196,4.0,10.0,43,0.00,,,0.00,343,Wunderground v.1.15,2013-02-06 16:05:00,
2013-02-06 09:10:00,44.2,22.5,29.74,SSE,164,4.0,10.0,42,0.00,,,0.00,376,Wunderground v.1.15,2013-02-06 16:10:00,
2013-02-06 09:15:00,44.7,22.4,29.74,SSE,153,4.0,10.0,41,0.00,,,0.00,415,Wunderground v.1.15,2013-02-06 16:15:00,
2013-02-06 09:20:00,45.6,23.2,29.74,South,172,4.0,4.0,41,0.00,,,0.00,459,Wunderground v.1.15,2013-02-06 16:20:00,
2013-02-06 09:30:00,47.4,23.0,29.74,South,181,3.0,10.0,38,0.00,,,0.00,524,Wunderground v.1.15,2013-02-06 16:30:00,
2013-02-06 09:40:00,49.2,22.7,29.73,South,185,3.0,10.0,35,0.00,,,0.00,564,Wunderground v.1.15,2013-02-06 16:40:00,
2013-02-06 09:45:00,50.6,23.2,29.73,SSW,208,2.0,10.0,34,0.00,,,0.00,568,Wunderground v.1.15,2013-02-06 16:45:00,
2013-02-06 09:50:00,51.4,21.7,29.73,SSW,205,2.0,10.0,31,0.00,,,0.00,485,Wunderground v.1.15,2013-02-06 16:50:00,
2013-02-06 09:55:00,51.9,22.2,29.73,SSW,204,2.0,10.0,31,0.00,,,0.00,427,Wunderground v.1.15,2013-02-06 16:55:00,
2013-02-06 10:05:00,52.2,21.7,29.73,South,183,3.0,10.0,30,0.00,,,0.00,520,Wunderground v.1.15,2013-02-06 17:05:00,
2013-02-06 10:10:00,52.3,21.7,29.72,SSW,196,4.0,10.0,30,0.00,,,0.00,635,Wunderground v.1.15,2013-02-06 17:10:00,
2013-02-06 10:15:00,52.9,21.5,29.73,SSW,204,4.0,10.0,29,0.00,,,0.00,587,Wunderground v.1.15,2013-02-06 17:15:00,
2013-02-06 10:20:00,53.6,22.1,29.72,South,173,4.0,10.0,29,0.00,,,0.00,599,Wunderground v.1.15,2013-02-06 17:20:00,
2013-02-06 10:25:00,54.7,23.0,29.73,South,190,3.0,10.0,29,0.00,,,0.00,610,Wunderground v.1.15,2013-02-06 17:25:00,
2013-02-06 10:35:00,56.0,21.6,29.72,South,188,2.0,5.0,26,0.00,,,0.00,594,Wunderground v.1.15,2013-02-06 17:35:00,
2013-02-06 10:40:00,55.9,21.5,29.72,SSE,148,2.0,10.0,26,0.00,,,0.00,622,Wunderground v.1.15,2013-02-06 17:40:00,
2013-02-06 10:45:00,56.7,21.2,29.72,SSE,162,2.0,10.0,25,0.00,,,0.00,427,Wunderground v.1.15,2013-02-06 17:45:00,
2013-02-06 10:50:00,57.0,21.5,29.72,SSW,197,1.0,1.0,25,0.00,,,0.00,376,Wunderground v.1.15,2013-02-06 17:50:00,
2013-02-06 10:55:00,56.9,21.4,29.72,South,190,1.0,10.0,25,0.00,,,0.00,353,Wunderground v.1.15,2013-02-06 17:55:00,
2013-02-06 11:05:00,56.1,21.6,29.71,South,190,1.0,10.0,26,0.00,,,0.00,320,Wunderground v.1.15,2013-02-06 18:05:00,
2013-02-06 11:10:00,56.7,21.2,29.71,NE,42,1.0,10.0,25,0.00,,,0.00,318,Wunderground v.1.15,2013-02-06 18:10:00,
2013-02-06 11:15:00,56.9,20.4,29.71,NNE,26,2.0,10.0,24,0.00,,,0.00,290,Wunderground v.1.15,2013-02-06 18:15:00,
2013-02-06 11:25:00,56.4,21.0,29.71,NNE,26,2.0,10.0,25,0.00,,,0.00,257,Wunderground v.1.15,2013-02-06 18:25:00,
2013-02-06 11:30:00,56.7,21.2,29.70,North,11,1.0,10.0,25,0.00,,,0.00,246,Wunderground v.1.15,2013-02-06 18:30:00,
2013-02-06 11:35:00,56.9,20.4,29.70,NE,44,2.0,10.0,24,0.00,,,0.00,237,Wunderground v.1.15,2013-02-06 18:35:00,
2013-02-06 11:45:00,56.4,20.0,29.70,North,5,3.0,10.0,24,0.00,,,0.00,230,Wunderground v.1.15,2013-02-06 18:45:00,
2013-02-06 11:50:00,56.2,20.8,29.70,NNE,31,4.0,4.0,25,0.00,,,0.00,225,Wunderground v.1.15,2013-02-06 18:50:00,
2013-02-06 11:55:00,55.8,20.5,29.70,NE,52,5.0,5.0,25,0.00,,,0.00,218,Wunderground v.1.15,2013-02-06 18:55:00,
2013-02-06 12:00:00,55.6,21.2,29.70,NNE,15,5.0,5.0,26,0.00,,,0.00,200,Wunderground v.1.15,2013-02-06 19:00:00,
2013-02-06 12:05:00,55.8,21.4,29.69,NNE,31,4.0,10.0,26,0.00,,,0.00,176,Wunderground v.1.15,2013-02-06 19:05:00,
2013-02-06 12:15:00,55.3,21.0,29.69,NNW,347,5.0,10.0,26,0.00,,,0.00,156,Wunderground v.1.15,2013-02-06 19:15:00,
2013-02-06 12:20:00,55.5,21.1,29.69,North,10,4.0,10.0,26,0.00,,,0.00,151,Wunderground v.1.15,2013-02-06 19:20:00,
2013-02-06 12:25:00,55.5,21.1,29.69,NNW,348,4.0,10.0,26,0.00,,,0.00,144,Wunderground v.1.15,2013-02-06 19:25:00,
2013-02-06 12:30:00,55.4,21.0,29.69,West,276,5.0,10.0,26,0.00,,,0.00,142,Wunderground v.1.15,2013-02-06 19:30:00,
2013-02-06 12:35:00,55.1,20.8,29.69,ENE,65,6.0,10.0,26,0.00,,,0.00,148,Wunderground v.1.15,2013-02-06 19:35:00,
2013-02-06 12:45:00,54.6,20.4,29.68,North,5,7.0,10.0,26,0.00,,,0.00,144,Wunderground v.1.15,2013-02-06 19:45:00,
2013-02-06 12:50:00,54.6,20.4,29.68,NE,36,7.0,7.0,26,0.00,,,0.00,163,Wunderground v.1.15,2013-02-06 19:50:00,
2013-02-06 12:55:00,54.6,20.4,29.68,NE,47,7.0,10.0,26,0.00,,,0.00,169,Wunderground v.1.15,2013-02-06 19:55:00,
2013-02-06 13:04:00,54.9,21.5,29.68,NNW,333,5.0,10.0,27,0.00,,,0.00,195,Wunderground v.1.15,2013-02-06 20:04:00,
2013-02-06 13:09:00,54.9,20.6,29.68,NNE,28,5.0,10.0,26,0.00,,,0.00,195,Wunderground v.1.15,2013-02-06 20:09:00,
2013-02-06 13:15:00,54.9,21.5,29.68,NE,38,5.0,10.0,27,0.00,,,0.00,188,Wunderground v.1.15,2013-02-06 20:15:00,
2013-02-06 13:24:00,54.9,21.5,29.67,NE,34,4.0,7.0,27,0.00,,,0.00,171,Wunderground v.1.15,2013-02-06 20:24:00,
2013-02-06 13:29:00,54.9,21.5,29.67,ENE,77,3.0,10.0,27,0.00,,,0.00,169,Wunderground v.1.15,2013-02-06 20:29:00,
2013-02-06 13:34:00,54.9,21.5,29.67,NNE,32,3.0,10.0,27,0.00,,,0.00,172,Wunderground v.1.15,2013-02-06 20:34:00,
2013-02-06 13:44:00,54.6,21.2,29.67,NNE,23,3.0,10.0,27,0.00,,,0.00,169,Wunderground v.1.15,2013-02-06 20:44:00,
2013-02-06 13:54:00,54.5,22.0,29.67,ENE,69,3.0,10.0,28,0.00,,,0.00,148,Wunderground v.1.15,2013-02-06 20:54:00,
2013-02-06 13:59:00,54.6,22.1,29.67,North,360,2.0,2.0,28,0.00,,,0.00,142,Wunderground v.1.15,2013-02-06 20:59:00,
2013-02-06 14:04:00,54.6,22.1,29.67,ENE,58,3.0,7.0,28,0.00,,,0.00,128,Wunderground v.1.15,2013-02-06 21:04:00,
2013-02-06 14:09:00,54.4,21.9,29.67,NE,42,3.0,3.0,28,0.00,,,0.00,118,Wunderground v.1.15,2013-02-06 21:09:00,
2013-02-06 14:14:00,54.4,21.9,29.67,NNE,26,3.0,5.0,28,0.00,,,0.00,111,Wunderground v.1.15,2013-02-06 21:14:00,
2013-02-06 14:19:00,54.1,21.7,29.68,North,5,3.0,3.0,28,0.00,,,0.00,107,Wunderground v.1.15,2013-02-06 21:19:00,
2013-02-06 14:29:00,53.8,22.2,29.68,NE,42,3.0,10.0,29,0.00,,,0.00,98,Wunderground v.1.15,2013-02-06 21:29:00,
2013-02-06 14:34:00,53.7,22.2,29.68,NNE,21,5.0,10.0,29,0.00,,,0.00,97,Wunderground v.1.15,2013-02-06 21:34:00,
2013-02-06 14:44:00,53.5,22.0,29.68,NE,34,4.0,10.0,29,0.00,,,0.00,86,Wunderground v.1.15,2013-02-06 21:44:00,
2013-02-06 14:49:00,53.6,22.9,29.68,NW,313,3.0,10.0,30,0.00,,,0.00,79,Wunderground v.1.15,2013-02-06 21:49:00,
2013-02-06 14:59:00,53.3,22.6,29.69,NNW,334,5.0,5.0,30,0.00,,,0.00,72,Wunderground v.1.15,2013-02-06 21:59:00,
2013-02-06 15:04:00,53.2,23.3,29.69,NE,52,4.0,10.0,31,0.00,,,0.00,67,Wunderground v.1.15,2013-02-06 22:04:00,
2013-02-06 15:09:00,53.2,22.5,29.70,North,355,3.0,3.0,30,0.00,,,0.00,60,Wunderground v.1.15,2013-02-06 22:09:00,
2013-02-06 15:14:00,53.3,23.4,29.70,NE,50,2.0,10.0,31,0.00,,,0.00,62,Wunderground v.1.15,2013-02-06 22:14:00,
2013-02-06 15:19:00,53.5,22.8,29.70,ESE,115,2.0,10.0,30,0.00,,,0.00,60,Wunderground v.1.15,2013-02-06 22:19:00,
2013-02-06 15:24:00,53.3,22.6,29.71,SSE,159,3.0,10.0,30,0.00,,,0.00,53,Wunderground v.1.15,2013-02-06 22:24:00,
2013-02-06 15:34:00,53.4,23.5,29.71,SE,140,1.0,3.0,31,0.00,,,0.00,35,Wunderground v.1.15,2013-02-06 22:34:00,
2013-02-06 15:39:00,53.3,22.6,29.71,East,82,3.0,3.0,30,0.00,,,0.00,35,Wunderground v.1.15,2013-02-06 22:39:00,
2013-02-06 15:44:00,53.3,23.4,29.72,ENE,59,4.0,4.0,31,0.00,,,0.00,35,Wunderground v.1.15,2013-02-06 22:44:00,
2013-02-06 15:50:00,53.0,24.6,29.72,ENE,67,5.0,13.0,33,0.00,,,0.00,30,Wunderground v.1.15,2013-02-06 22:50:00,
2013-02-06 15:55:00,52.6,25.7,29.72,NE,56,7.0,13.0,35,0.00,,,0.00,26,Wunderground v.1.15,2013-02-06 22:55:00,
2013-02-06 16:00:00,52.5,25.6,29.72,SE,143,6.0,6.0,35,0.00,,,0.00,26,Wunderground v.1.15,2013-02-06 23:00:00,
2013-02-06 16:05:00,52.4,25.5,29.73,South,188,5.0,10.0,35,0.00,,,0.00,28,Wunderground v.1.15,2013-02-06 23:05:00,
2013-02-06 16:10:00,52.3,26.1,29.73,South,179,4.0,4.0,36,0.00,,,0.00,28,Wunderground v.1.15,2013-02-06 23:10:00,
2013-02-06 16:20:00,52.4,26.2,29.74,WNW,296,1.0,10.0,36,0.00,,,0.00,19,Wunderground v.1.15,2013-02-06 23:20:00,
2013-02-06 16:29:00,52.2,26.7,29.74,SSE,167,2.0,2.0,37,0.00,,,0.00,12,Wunderground v.1.15,2013-02-06 23:29:00,
2013-02-06 16:35:00,52.0,26.5,29.74,SSE,165,1.0,10.0,37,0.00,,,0.00,12,Wunderground v.1.15,2013-02-06 23:35:00,
2013-02-06 16:44:00,51.6,26.8,29.75,South,183,2.0,10.0,38,0.00,,,0.00,9,Wunderground v.1.15,2013-02-06 23:44:00,
2013-02-06 16:50:00,51.3,26.5,29.75,ENE,69,3.0,10.0,38,0.00,,,0.00,9,Wunderground v.1.15,2013-02-06 23:50:00,
2013-02-06 16:55:00,51.4,27.2,29.75,SE,126,2.0,10.0,39,0.00,,,0.00,7,Wunderground v.1.15,2013-02-06 23:55:00,
2013-02-06 17:00:00,51.5,27.3,29.76,SSE,164,1.0,1.0,39,0.00,,,0.00,5,Wunderground v.1.15,2013-02-07 00:00:00,
2013-02-06 17:09:00,51.2,27.1,29.77,NE,51,2.0,10.0,39,0.00,,,0.00,0,Wunderground v.1.15,2013-02-07 00:09:00,
2013-02-06 17:14:00,50.4,28.1,29.78,NNE,22,5.0,10.0,42,0.00,,,0.00,0,Wunderground v.1.15,2013-02-07 00:14:00,
2013-02-06 17:19:00,49.6,29.1,29.79,NNE,32,7.0,7.0,45,0.00,,,0.00,0,Wunderground v.1.15,2013-02-07 00:19:00,
2013-02-06 17:24:00,49.2,28.7,29.79,North,10,6.0,10.0,45,0.00,,,0.00,0,Wunderground v.1.15,2013-02-07 00:24:00,
2013-02-06 17:29:00,48.9,29.0,29.80,SSE,159,5.0,5.0,46,0.00,,,0.00,0,Wunderground v.1.15,2013-02-07 00:29:00,
2013-02-06 17:39:00,47.6,31.3,29.80,SW,228,4.0,4.0,53,0.00,,,0.00,0,Wunderground v.1.15,2013-02-07 00:39:00,
2013-02-06 17:44:00,47.4,30.6,29.80,WNW,286,3.0,10.0,52,0.00,,,0.00,0,Wunderground v.1.15,2013-02-07 00:44:00,
2013-02-06 17:49:00,47.2,30.5,29.81,West,277,1.0,10.0,52,0.00,,,0.00,0,Wunderground v.1.15,2013-02-07 00:49:00,
2013-02-06 17:54:00,47.2,30.5,29.82,NE,51,2.0,10.0,52,0.00,,,0.00,0,Wunderground v.1.15,2013-02-07 00:54:00,
2013-02-06 17:59:00,47.3,30.5,29.82,ENE,74,3.0,10.0,52,0.00,,,0.00,0,Wunderground v.1.15,2013-02-07 00:59:00,
2013-02-06 18:04:00,47.1,30.4,29.82,SE,127,3.0,10.0,52,0.00,,,0.00,0,Wunderground v.1.15,2013-02-07 01:04:00,
2013-02-06 18:14:00,47.0,30.7,29.83,SE,140,0.0,10.0,53,0.00,,,0.00,0,Wunderground v.1.15,2013-02-07 01:14:00,
2013-02-06 18:19:00,46.9,29.7,29.83,NNE,22,3.0,10.0,51,0.00,,,0.00,0,Wunderground v.1.15,2013-02-07 01:19:00,
2013-02-06 18:24:00,46.8,30.1,29.83,North,5,5.0,10.0,52,0.00,,,0.00,0,Wunderground v.1.15,2013-02-07 01:24:00,
2013-02-06 18:29:00,46.4,31.1,29.84,North,5,5.0,10.0,55,0.00,,,0.00,0,Wunderground v.1.15,2013-02-07 01:29:00,
2013-02-06 18:34:00,46.2,30.5,29.84,NE,37,4.0,10.0,54,0.00,,,0.00,0,Wunderground v.1.15,2013-02-07 01:34:00,
2013-02-06 18:39:00,46.0,31.6,29.85,NE,55,2.0,10.0,57,0.00,,,0.00,0,Wunderground v.1.15,2013-02-07 01:39:00,
2013-02-06 18:49:00,45.2,32.5,29.86,NE,34,2.0,2.0,61,0.00,,,0.00,0,Wunderground v.1.15,2013-02-07 01:49:00,
2013-02-06 18:54:00,44.9,32.7,29.86,NNE,16,2.0,6.0,62,0.00,,,0.00,0,Wunderground v.1.15,2013-02-07 01:54:00,
2013-02-06 18:59:00,44.6,32.4,29.86,North,5,3.0,3.0,62,0.00,,,0.00,0,Wunderground v.1.15,2013-02-07 01:59:00,
2013-02-06 19:04:00,44.3,32.5,29.87,North,360,2.0,10.0,63,0.00,,,0.00,0,Wunderground v.1.15,2013-02-07 02:04:00,
2013-02-06 19:09:00,43.8,32.8,29.87,NNE,24,3.0,10.0,65,0.00,,,0.00,0,Wunderground v.1.15,2013-02-07 02:09:00,
2013-02-06 19:19:00,43.3,33.1,29.87,East,98,2.0,2.0,67,0.00,,,0.00,0,Wunderground v.1.15,2013-02-07 02:19:00,
2013-02-06 19:24:00,43.1,33.3,29.87,ESE,115,2.0,3.0,68,0.00,,,0.00,0,Wunderground v.1.15,2013-02-07 02:24:00,
2013-02-06 19:29:00,42.7,32.9,29.88,North,9,3.0,3.0,68,0.00,,,0.00,0,Wunderground v.1.15,2013-02-07 02:29:00,
2013-02-06 19:34:00,42.1,32.7,29.88,NE,42,5.0,5.0,69,0.00,,,0.00,0,Wunderground v.1.15,2013-02-07 02:34:00,
2013-02-06 19:40:00,41.3,32.6,29.89,NE,51,4.0,4.0,71,0.00,,,0.01,0,Wunderground v.1.15,2013-02-07 02:40:00,
2013-02-06 19:45:00,40.9,32.6,29.89,North,355,3.0,6.0,72,0.00,,,0.01,0,Wunderground v.1.15,2013-02-07 02:45:00,
2013-02-06 19:50:00,40.7,32.7,29.89,NE,54,2.0,10.0,73,0.00,,,0.01,0,Wunderground v.1.15,2013-02-07 02:50:00,
2013-02-06 19:55:00,40.5,32.5,29.89,North,11,2.0,10.0,73,0.05,,,0.02,0,Wunderground v.1.15,2013-02-07 02:55:00,
2013-02-06 20:00:00,40.3,33.3,29.89,NNW,342,1.0,10.0,76,0.05,,,0.02,0,Wunderground v.1.15,2013-02-07 03:00:00,
2013-02-06 20:05:00,40.2,33.2,29.90,WNW,290,2.0,10.0,76,0.04,,,0.02,0,Wunderground v.1.15,2013-02-07 03:05:00,
2013-02-06 20:10:00,40.2,33.2,29.90,NE,53,3.0,10.0,76,0.00,,,0.02,0,Wunderground v.1.15,2013-02-07 03:10:00,
2013-02-06 20:20:00,40.2,33.9,29.91,North,11,1.0,10.0,78,0.00,,,0.03,0,Wunderground v.1.15,2013-02-07 03:20:00,
2013-02-06 20:25:00,40.0,33.7,29.91,NNE,17,1.0,10.0,78,0.00,,,0.03,0,Wunderground v.1.15,2013-02-07 03:25:00,
2013-02-06 20:30:00,40.0,34.0,29.91,South,172,2.0,10.0,79,0.00,,,0.03,0,Wunderground v.1.15,2013-02-07 03:30:00,
2013-02-06 20:40:00,38.9,33.9,29.91,South,180,6.0,6.0,82,0.00,,,0.03,0,Wunderground v.1.15,2013-02-07 03:40:00,
2013-02-06 20:45:00,38.7,34.0,29.92,South,185,4.0,10.0,83,0.00,,,0.03,0,Wunderground v.1.15,2013-02-07 03:45:00,
2013-02-06 20:55:00,38.2,33.8,29.92,SSW,196,5.0,6.0,84,0.00,,,0.03,0,Wunderground v.1.15,2013-02-07 03:55:00,
2013-02-06 21:00:00,37.8,33.7,29.92,South,171,5.0,10.0,85,0.00,,,0.03,0,Wunderground v.1.15,2013-02-07 04:00:00,
2013-02-06 21:05:00,37.7,33.9,29.93,South,178,5.0,10.0,86,0.00,,,0.03,0,Wunderground v.1.15,2013-02-07 04:05:00,
2013-02-06 21:10:00,37.6,34.1,29.93,South,173,5.0,5.0,87,0.00,,,0.03,0,Wunderground v.1.15,2013-02-07 04:10:00,
2013-02-06 21:19:00,37.5,34.3,29.94,SSW,196,4.0,10.0,88,0.00,,,0.03,0,Wunderground v.1.15,2013-02-07 04:19:00,
2013-02-06 21:29:00,37.2,34.0,29.94,SSW,211,4.0,4.0,88,0.00,,,0.03,0,Wunderground v.1.15,2013-02-07 04:29:00,
2013-02-06 21:34:00,37.1,33.9,29.94,SSW,197,4.0,10.0,88,0.00,,,0.03,0,Wunderground v.1.15,2013-02-07 04:34:00,
2013-02-06 21:39:00,37.1,34.2,29.94,SSW,204,3.0,10.0,89,0.00,,,0.03,0,Wunderground v.1.15,2013-02-07 04:39:00,
2013-02-06 21:44:00,37.2,34.3,29.95,South,186,2.0,10.0,89,0.00,,,0.03,0,Wunderground v.1.15,2013-02-07 04:44:00,
2013-02-06 21:49:00,37.0,34.1,29.95,South,187,3.0,10.0,89,0.00,,,0.03,0,Wunderground v.1.15,2013-02-07 04:49:00,
2013-02-06 21:59:00,36.7,33.8,29.95,SSW,194,4.0,4.0,89,0.00,,,0.03,0,Wunderground v.1.15,2013-02-07 04:59:00,
2013-02-06 22:04:00,36.7,33.8,29.95,SSW,207,3.0,10.0,89,0.00,,,0.03,0,Wunderground v.1.15,2013-02-07 05:04:00,
2013-02-06 22:09:00,36.6,33.7,29.96,South,184,3.0,10.0,89,0.00,,,0.03,0,Wunderground v.1.15,2013-02-07 05:09:00,
2013-02-06 22:14:00,36.5,33.8,29.96,South,176,4.0,10.0,90,0.00,,,0.04,0,Wunderground v.1.15,2013-02-07 05:14:00,
2013-02-06 22:19:00,36.4,33.7,29.96,SSW,198,3.0,10.0,90,0.00,,,0.04,0,Wunderground v.1.15,2013-02-07 05:19:00,
2013-02-06 22:24:00,36.4,33.7,29.96,SSW,198,3.0,10.0,90,0.00,,,0.04,0,Wunderground v.1.15,2013-02-07 05:24:00,
2013-02-06 22:29:00,36.4,33.7,29.97,South,183,4.0,10.0,90,0.00,,,0.04,0,Wunderground v.1.15,2013-02-07 05:29:00,
2013-02-06 22:39:00,36.5,33.8,29.97,SSW,194,3.0,3.0,90,0.00,,,0.04,0,Wunderground v.1.15,2013-02-07 05:39:00,
2013-02-06 22:49:00,36.4,33.7,29.98,South,188,4.0,10.0,90,0.00,,,0.04,0,Wunderground v.1.15,2013-02-07 05:49:00,
2013-02-06 22:54:00,36.4,33.7,29.98,South,173,5.0,10.0,90,0.00,,,0.04,0,Wunderground v.1.15,2013-02-07 05:54:00,
2013-02-06 23:04:00,36.2,33.5,29.99,South,175,4.0,10.0,90,0.00,,,0.04,0,Wunderground v.1.15,2013-02-07 06:04:00,
2013-02-06 23:09:00,36.2,33.5,29.99,South,186,4.0,10.0,90,0.00,,,0.04,0,Wunderground v.1.15,2013-02-07 06:09:00,
2013-02-06 23:14:00,36.2,33.5,29.99,South,189,4.0,10.0,90,0.00,,,0.04,0,Wunderground v.1.15,2013-02-07 06:14:00,
2013-02-06 23:19:00,36.2,33.5,29.99,SSW,200,4.0,4.0,90,0.00,,,0.04,0,Wunderground v.1.15,2013-02-07 06:19:00,
2013-02-06 23:24:00,36.2,33.8,29.99,SSW,205,2.0,10.0,91,0.00,,,0.04,0,Wunderground v.1.15,2013-02-07 06:24:00,
2013-02-06 23:29:00,36.2,33.8,29.99,South,174,2.0,10.0,91,0.00,,,0.04,0,Wunderground v.1.15,2013-02-07 06:29:00,
2013-02-06 23:39:00,36.3,33.9,29.99,South,191,3.0,3.0,91,0.00,,,0.04,0,Wunderground v.1.15,2013-02-07 06:39:00,
2013-02-06 23:49:00,36.4,33.7,30.00,SSW,205,2.0,10.0,90,0.00,,,0.04,0,Wunderground v.1.15,2013-02-07 06:49:00,
2013-02-06 23:54:00,36.3,33.6,30.00,SSW,213,2.0,10.0,90,0.00,,,0.04,0,Wunderground v.1.15,2013-02-07 06:54:00,
2013-02-06 23:59:00,36.3,33.6,30.00,WSW,251,2.0,2.0,90,0.00,,,0.04,0,Wunderground v.1.15,2013-02-07 06:59:00,